カタログに戻る

BREEZE-M DEB

運用中HEO
NORAD 38187·DEBRIS·🇷🇺 Russia

打ち上げ Nov 25, 2011 から Baikonur Cosmodrome

Loading…

次のパス (今後24時間)

TLE

最新Source: Space-Track

元期: Sep 12, 2026, 20:42 UTC

1 38187U 11069D   26255.86266081 -.00000138  00000-0  00000-0 0  9994
2 38187   1.6485  34.7342 3802772 340.2024   8.4029  1.71974027 90549

AllMySatでBREEZE-M DEBをリアルタイム追跡

Download on the App Store